Private Wetterstation Wechselburg
Wetterdaten: Donnerstag, 22.12.2011
Datum Zeit Temp. +2m Bodentemp. Temp.+5cm Temp. Wind Windchill X Diff Temp. Feuchte +2m Feuchte +5cm Sonnenschein Luftdruck Regen Wind Richtung Richtung Sonnenschein UV Taupunkt Windchill Windben
22.12.2011 00:00 2,3 C 8,9 C 2,3 C 2,2 C 2,1 C 0,0 C 91 % 95 % 0 % 1021,2 hPa 0,0 l/m 1,1 km/h (1 Bft) W-SW 247 0 min 0,0 UV-I 1,0 C 2,1 C 3,5 km/h (1 Bft)
22.12.2011 00:10 2,3 C 8,9 C 2,3 C 2,2 C 2,1 C 0,0 C 91 % 95 % 0 % 1021,2 hPa 0,0 l/m 2,1 km/h (1 Bft) N 0 0 min 0,0 UV-I 1,0 C 2,1 C 2,9 km/h (1 Bft)
22.12.2011 00:20 2,3 C 8,9 C 2,3 C 2,2 C 2,1 C 0,0 C 91 % 95 % 0 % 1021,8 hPa 0,0 l/m 1,3 km/h (1 Bft) W-SW 247 0 min 0,0 UV-I 1,0 C 2,1 C 3,2 km/h (1 Bft)
22.12.2011 00:25 2,3 C 8,9 C 2,3 C 2,2 C 2,1 C 0,0 C 92 % 95 % 0 % 1021,8 hPa 0,0 l/m 1,8 km/h (1 Bft) W-SW 247 0 min 0,0 UV-I 1,1 C 2,1 C 3,1 km/h (1 Bft)
22.12.2011 00:30 2,3 C 8,9 C 2,4 C 2,2 C 2,1 C 0,0 C 92 % 95 % 0 % 1021,8 hPa 0,0 l/m 2,3 km/h (1 Bft) W-SW 247 0 min 0,0 UV-I 1,1 C 2,1 C 6,8 km/h (2 Bft)
22.12.2011 00:35 2,3 C 8,9 C 2,3 C 2,3 C 2,2 C 0,0 C 92 % 95 % 0 % 1021,8 hPa 0,0 l/m 2,3 km/h (1 Bft) W-SW 247 0 min 0,0 UV-I 1,1 C 2,2 C 0,0 km/h (0 Bft)
22.12.2011 00:40 2,3 C 8,9 C 2,3 C 2,2 C 2,1 C 0,0 C 91 % 95 % 0 % 1021,4 hPa 0,0 l/m 1,9 km/h (1 Bft) W-SW 247 0 min 0,0 UV-I 1,0 C 2,1 C 2,3 km/h (1 Bft)
22.12.2011 00:45 2,4 C 8,9 C 2,3 C 2,3 C 2,1 C 0,0 C 92 % 95 % 0 % 1021,4 hPa 0,0 l/m 1,8 km/h (1 Bft) W-SW 247 0 min 0,0 UV-I 1,2 C 2,1 C 2,4 km/h (1 Bft)
22.12.2011 00:50 2,3 C 8,9 C 2,4 C 2,2 C 2,1 C 0,0 C 92 % 95 % 0 % 1021,4 hPa 0,0 l/m 2,4 km/h (1 Bft) W-SW 247 0 min 0,0 UV-I 1,1 C 2,1 C 3,4 km/h (1 Bft)
22.12.2011 00:55 2,4 C 8,9 C 2,4 C 2,3 C 2,2 C 0,0 C 92 % 95 % 0 % 1021,4 hPa 0,0 l/m 2,6 km/h (1 Bft) W-SW 247 0 min 0,0 UV-I 1,2 C 2,2 C 2,7 km/h (1 Bft)
22.12.2011 01:00 2,4 C 8,9 C 2,4 C 2,3 C 2,2 C 0,0 C 92 % 95 % 0 % 1021,3 hPa 0,0 l/m 2,4 km/h (1 Bft) W-SW 247 0 min 0,0 UV-I 1,2 C 2,2 C 3,1 km/h (1 Bft)
22.12.2011 01:04 2,3 C 8,9 C 2,4 C 2,3 C 2,2 C 0,0 C 92 % 95 % 0 % 1021,3 hPa 0,0 l/m 2,4 km/h (1 Bft) W-SW 247 0 min 0,0 UV-I 1,1 C 2,2 C 2,4 km/h (1 Bft)
22.12.2011 01:09 2,3 C 8,9 C 2,4 C 2,3 C 2,2 C 0,0 C 92 % 95 % 0 % 1021,3 hPa 0,0 l/m 2,1 km/h (1 Bft) W-SW 247 0 min 0,0 UV-I 1,1 C 2,2 C 2,4 km/h (1 Bft)
22.12.2011 01:14 2,4 C 8,9 C 2,4 C 2,3 C 2,2 C 0,0 C 92 % 95 % 0 % 1021,3 hPa 0,0 l/m 2,3 km/h (1 Bft) W-SW 247 0 min 0,0 UV-I 1,2 C 2,2 C 2,3 km/h (1 Bft)
22.12.2011 01:20 2,3 C 8,9 C 2,3 C 2,2 C 2,1 C 0,0 C 92 % 95 % 0 % 1021,4 hPa 0,0 l/m 2,6 km/h (1 Bft) W-SW 247 0 min 0,0 UV-I 1,1 C 2,1 C 2,9 km/h (1 Bft)
22.12.2011 01:30 2,3 C 8,9 C 2,4 C 2,3 C 2,2 C 0,0 C 92 % 95 % 0 % 1021,4 hPa 0,0 l/m 2,3 km/h (1 Bft) W-SW 247 0 min 0,0 UV-I 1,1 C 2,2 C 2,6 km/h (1 Bft)
22.12.2011 01:35 2,3 C 8,9 C 2,4 C 2,3 C 2,2 C 0,0 C 92 % 95 % 0 % 1021,4 hPa 0,0 l/m 1,4 km/h (1 Bft) W 270 0 min 0,0 UV-I 1,1 C 2,2 C 2,4 km/h (1 Bft)
22.12.2011 01:40 2,3 C 8,9 C 2,3 C 2,2 C 2,1 C 0,0 C 92 % 95 % 0 % 1021,4 hPa 0,0 l/m 1,9 km/h (1 Bft) W-SW 247 0 min 0,0 UV-I 1,1 C 2,1 C 2,6 km/h (1 Bft)
22.12.2011 01:45 2,3 C 8,9 C 2,3 C 2,2 C 1,9 C 0,0 C 92 % 95 % 0 % 1021,4 hPa 0,0 l/m 2,9 km/h (1 Bft) W-SW 247 0 min 0,0 UV-I 1,1 C 1,9 C 4,7 km/h (1 Bft)
22.12.2011 01:50 2,3 C 8,9 C 2,3 C 2,2 C 1,9 C 0,0 C 92 % 95 % 0 % 1021,4 hPa 0,0 l/m 2,9 km/h (1 Bft) W-SW 247 0 min 0,0 UV-I 1,1 C 1,9 C 2,7 km/h (1 Bft)
22.12.2011 01:55 2,3 C 8,9 C 2,3 C 2,1 C 1,8 C 0,0 C 92 % 95 % 0 % 1021,4 hPa 0,0 l/m 3,1 km/h (1 Bft) W-SW 247 0 min 0,0 UV-I 1,1 C 1,8 C 3,2 km/h (1 Bft)
22.12.2011 02:00 2,3 C 8,9 C 2,4 C 2,1 C 1,8 C 0,0 C 92 % 95 % 0 % 1021,7 hPa 0,0 l/m 3,2 km/h (1 Bft) W-SW 247 0 min 0,0 UV-I 1,1 C 1,8 C 5,0 km/h (1 Bft)
22.12.2011 02:04 2,4 C 8,9 C 2,4 C 2,2 C 1,8 C 0,0 C 92 % 95 % 0 % 1021,7 hPa 0,0 l/m 3,2 km/h (1 Bft) W-SW 247 0 min 0,0 UV-I 1,2 C 1,8 C 3,9 km/h (1 Bft)
22.12.2011 02:09 2,4 C 8,9 C 2,4 C 2,3 C 2,1 C 0,0 C 92 % 95 % 0 % 1021,7 hPa 0,0 l/m 2,9 km/h (1 Bft) W-SW 247 0 min 0,0 UV-I 1,2 C 2,1 C 5,8 km/h (2 Bft)
22.12.2011 02:14 2,4 C 8,9 C 2,3 C 2,1 C 1,6 C 0,0 C 92 % 95 % 0 % 1021,7 hPa 0,0 l/m 3,7 km/h (1 Bft) W-SW 247 0 min 0,0 UV-I 1,2 C 1,6 C 4,2 km/h (1 Bft)
22.12.2011 02:21 2,4 C 8,9 C 2,4 C 2,0 C 1,2 C 0,0 C 92 % 95 % 0 % 1021,9 hPa 0,0 l/m 4,3 km/h (1 Bft) W-SW 247 0 min 0,0 UV-I 1,2 C 1,2 C 3,7 km/h (1 Bft)
22.12.2011 02:25 2,4 C 8,9 C 2,4 C 2,1 C 1,4 C 0,0 C 92 % 95 % 0 % 1021,9 hPa 0,0 l/m 4,0 km/h (1 Bft) W-SW 247 0 min 0,0 UV-I 1,2 C 1,4 C 4,8 km/h (1 Bft)
22.12.2011 02:30 2,4 C 8,9 C 2,4 C 2,2 C 1,7 C 0,0 C 92 % 95 % 0 % 1021,9 hPa 0,0 l/m 3,5 km/h (1 Bft) W-SW 247 0 min 0,0 UV-I 1,2 C 1,7 C 7,4 km/h (2 Bft)
22.12.2011 02:35 2,4 C 8,9 C 2,4 C 2,2 C 1,9 C 0,0 C 92 % 95 % 0 % 1021,9 hPa 0,0 l/m 3,1 km/h (1 Bft) W-SW 247 0 min 0,0 UV-I 1,2 C 1,9 C 4,3 km/h (1 Bft)
22.12.2011 02:40 2,4 C 8,9 C 2,4 C 2,2 C 1,9 C 0,0 C 92 % 95 % 0 % 1021,9 hPa 0,0 l/m 3,1 km/h (1 Bft) W-SW 247 0 min 0,0 UV-I 1,2 C 1,9 C 3,5 km/h (1 Bft)
22.12.2011 02:45 2,4 C 8,9 C 2,3 C 2,1 C 1,6 C 0,0 C 92 % 95 % 0 % 1021,9 hPa 0,0 l/m 3,4 km/h (1 Bft) SW 225 0 min 0,0 UV-I 1,2 C 1,6 C 4,0 km/h (1 Bft)
22.12.2011 02:50 2,4 C 8,9 C 2,3 C 2,3 C 2,1 C 0,0 C 91 % 95 % 0 % 1021,9 hPa 0,0 l/m 2,4 km/h (1 Bft) SW 225 0 min 0,0 UV-I 1,1 C 2,1 C 0,0 km/h (0 Bft)
22.12.2011 02:55 2,3 C 8,9 C 2,3 C 2,2 C 2,0 C 0,0 C 91 % 95 % 0 % 1021,9 hPa 0,0 l/m 1,8 km/h (1 Bft) W-SW 247 0 min 0,0 UV-I 1,0 C 2,0 C 0,0 km/h (0 Bft)
22.12.2011 03:00 2,3 C 8,9 C 2,2 C 2,2 C 2,0 C 0,0 C 91 % 95 % 0 % 1021,9 hPa 0,0 l/m 1,9 km/h (1 Bft) W-SW 247 0 min 0,0 UV-I 1,0 C 2,0 C 4,2 km/h (1 Bft)
22.12.2011 03:04 2,2 C 8,9 C 2,3 C 2,1 C 2,0 C 0,0 C 91 % 95 % 0 % 1021,9 hPa 0,0 l/m 2,3 km/h (1 Bft) SW 225 0 min 0,0 UV-I 0,9 C 2,0 C 2,1 km/h (1 Bft)
22.12.2011 03:09 2,3 C 8,9 C 2,3 C 2,2 C 2,0 C 0,0 C 91 % 95 % 0 % 1021,9 hPa 0,0 l/m 2,6 km/h (1 Bft) SW 225 0 min 0,0 UV-I 1,0 C 2,0 C 1,8 km/h (1 Bft)
22.12.2011 03:14 2,3 C 8,9 C 2,3 C 2,2 C 2,0 C 0,0 C 91 % 95 % 0 % 1021,9 hPa 0,0 l/m 1,9 km/h (1 Bft) W-SW 247 0 min 0,0 UV-I 1,0 C 2,0 C 4,5 km/h (1 Bft)
22.12.2011 03:21 2,3 C 8,9 C 2,2 C 2,2 C 2,0 C 0,0 C 91 % 95 % 0 % 1022,1 hPa 0,0 l/m 1,9 km/h (1 Bft) W 270 0 min 0,0 UV-I 1,0 C 2,0 C 2,4 km/h (1 Bft)
22.12.2011 03:25 2,3 C 8,9 C 2,1 C 2,1 C 1,8 C 0,0 C 91 % 95 % 0 % 1022,1 hPa 0,0 l/m 2,7 km/h (1 Bft) W-SW 247 0 min 0,0 UV-I 1,0 C 1,8 C 3,5 km/h (1 Bft)
22.12.2011 03:30 2,2 C 8,9 C 2,1 C 2,0 C 1,6 C 0,0 C 91 % 95 % 0 % 1022,1 hPa 0,0 l/m 3,1 km/h (1 Bft) W-SW 247 0 min 0,0 UV-I 0,9 C 1,6 C 5,0 km/h (1 Bft)
22.12.2011 03:35 2,3 C 8,9 C 2,1 C 1,9 C 1,2 C 0,0 C 91 % 95 % 0 % 1022,1 hPa 0,0 l/m 3,9 km/h (1 Bft) W-SW 247 0 min 0,0 UV-I 1,0 C 1,2 C 6,4 km/h (2 Bft)
22.12.2011 03:40 2,2 C 8,9 C 2,1 C 1,9 C 1,2 C 0,0 C 91 % 95 % 0 % 1022,3 hPa 0,0 l/m 3,9 km/h (1 Bft) W-SW 247 0 min 0,0 UV-I 0,9 C 1,2 C 2,4 km/h (1 Bft)
22.12.2011 03:45 2,2 C 8,9 C 2,1 C 1,9 C 1,2 C 0,0 C 91 % 95 % 0 % 1022,3 hPa 0,0 l/m 3,5 km/h (1 Bft) W-SW 247 0 min 0,0 UV-I 0,9 C 1,2 C 3,9 km/h (1 Bft)
22.12.2011 03:50 2,1 C 8,9 C 2,0 C 1,9 C 1,4 C 0,0 C 91 % 95 % 0 % 1022,3 hPa 0,0 l/m 3,1 km/h (1 Bft) S-SW 202 0 min 0,0 UV-I 0,8 C 1,4 C 2,7 km/h (1 Bft)
22.12.2011 03:55 2,1 C 8,9 C 2,0 C 1,9 C 1,6 C 0,0 C 91 % 95 % 0 % 1022,3 hPa 0,0 l/m 2,7 km/h (1 Bft) SW 225 0 min 0,0 UV-I 0,8 C 1,6 C 3,7 km/h (1 Bft)
22.12.2011 04:00 2,0 C 8,9 C 2,0 C 1,9 C 1,7 C 0,0 C 91 % 95 % 0 % 1022,8 hPa 0,0 l/m 2,4 km/h (1 Bft) W-SW 247 0 min 0,0 UV-I 0,7 C 1,7 C 2,4 km/h (1 Bft)
22.12.2011 04:11 2,1 C 8,9 C 2,0 C 1,9 C 1,6 C 0,0 C 91 % 95 % 0 % 1022,8 hPa 0,0 l/m 0,5 km/h (0 Bft) W-SW 247 0 min 0,0 UV-I 0,8 C 1,6 C 0,0 km/h (0 Bft)
22.12.2011 04:13 2,1 C 8,9 C 2,0 C 1,9 C 1,6 C 0,0 C 91 % 95 % 0 % 1022,8 hPa 0,0 l/m 0,5 km/h (0 Bft) W-SW 247 0 min 0,0 UV-I 0,8 C 1,6 C 0,0 km/h (0 Bft)
22.12.2011 04:20 1,9 C 8,9 C 1,9 C 1,7 C 1,4 C 0,0 C 91 % 95 % 0 % 1022,8 hPa 0,0 l/m 0,0 km/h (0 Bft) S-SO 157 0 min 0,0 UV-I 0,6 C 1,4 C 0,0 km/h (0 Bft)
22.12.2011 04:25 1,8 C 8,9 C 1,9 C 1,7 C 1,4 C 0,0 C 91 % 95 % 0 % 1022,8 hPa 0,0 l/m 0,0 km/h (0 Bft) O-SO 112 0 min 0,0 UV-I 0,5 C 1,4 C 0,0 km/h (0 Bft)
22.12.2011 04:30 1,9 C 8,8 C 1,9 C 1,7 C 1,4 C 0,0 C 91 % 95 % 0 % 1022,8 hPa 0,0 l/m 0,0 km/h (0 Bft) O 90 0 min 0,0 UV-I 0,6 C 1,4 C 0,0 km/h (0 Bft)
22.12.2011 04:35 1,8 C 8,9 C 1,7 C 1,7 C 1,4 C 0,0 C 91 % 95 % 0 % 1022,8 hPa 0,0 l/m 0,0 km/h (0 Bft) W-SW 247 0 min 0,0 UV-I 0,5 C 1,4 C 0,0 km/h (0 Bft)
22.12.2011 04:40 1,7 C 8,9 C 1,9 C 1,6 C 1,4 C 0,0 C 91 % 95 % 0 % 1022,7 hPa 0,0 l/m 0,2 km/h (0 Bft) SW 225 0 min 0,0 UV-I 0,4 C 1,4 C 2,7 km/h (1 Bft)
22.12.2011 04:45 1,9 C 8,9 C 1,9 C 1,8 C 1,6 C 0,0 C 91 % 95 % 0 % 1022,7 hPa 0,0 l/m 2,1 km/h (1 Bft) SW 225 0 min 0,0 UV-I 0,6 C 1,6 C 4,8 km/h (1 Bft)
22.12.2011 04:50 1,9 C 8,9 C 1,9 C 1,8 C 1,5 C 0,0 C 91 % 95 % 0 % 1022,7 hPa 0,0 l/m 2,9 km/h (1 Bft) W-SW 247 0 min 0,0 UV-I 0,6 C 1,5 C 3,7 km/h (1 Bft)
22.12.2011 04:55 1,9 C 8,9 C 2,0 C 1,8 C 1,6 C 0,0 C 91 % 95 % 0 % 1022,7 hPa 0,0 l/m 2,9 km/h (1 Bft) W-SW 247 0 min 0,0 UV-I 0,6 C 1,6 C 2,6 km/h (1 Bft)
22.12.2011 05:00 1,9 C 8,9 C 2,1 C 1,8 C 1,5 C 0,0 C 91 % 95 % 0 % 1022,7 hPa 0,0 l/m 3,2 km/h (1 Bft) W-SW 247 0 min 0,0 UV-I 0,6 C 1,5 C 4,5 km/h (1 Bft)
22.12.2011 05:04 2,0 C 8,9 C 2,0 C 1,9 C 1,6 C 0,0 C 91 % 95 % 0 % 1022,7 hPa 0,0 l/m 3,1 km/h (1 Bft) W-SW 247 0 min 0,0 UV-I 0,7 C 1,6 C 4,7 km/h (1 Bft)
22.12.2011 05:09 2,1 C 8,9 C 2,0 C 2,1 C 2,0 C 0,0 C 91 % 95 % 0 % 1022,7 hPa 0,0 l/m 2,6 km/h (1 Bft) W-SW 247 0 min 0,0 UV-I 0,8 C 2,0 C 2,4 km/h (1 Bft)
22.12.2011 05:14 2,1 C 8,9 C 2,0 C 2,1 C 2,0 C 0,0 C 92 % 95 % 0 % 1022,7 hPa 0,0 l/m 1,1 km/h (1 Bft) W-NW 292 0 min 0,0 UV-I 0,9 C 2,0 C 0,0 km/h (0 Bft)
22.12.2011 05:19 2,0 C 8,9 C 2,1 C 2,0 C 1,9 C 0,0 C 91 % 95 % 0 % 1022,9 hPa 0,0 l/m 0,2 km/h (0 Bft) W 270 0 min 0,0 UV-I 0,7 C 1,9 C 0,0 km/h (0 Bft)
22.12.2011 05:21 2,0 C 8,9 C 2,1 C 2,0 C 1,9 C 0,0 C 91 % 95 % 0 % 1022,9 hPa 0,0 l/m 0,2 km/h (0 Bft) W 270 0 min 0,0 UV-I 0,7 C 1,9 C 0,0 km/h (0 Bft)
22.12.2011 05:25 2,0 C 8,9 C 2,0 C 1,9 C 1,8 C 0,0 C 91 % 95 % 0 % 1022,9 hPa 0,0 l/m 0,0 km/h (0 Bft) W-SW 247 0 min 0,0 UV-I 0,7 C 1,8 C 1,8 km/h (1 Bft)
22.12.2011 05:30 2,0 C 8,9 C 2,0 C 1,9 C 1,7 C 0,0 C 91 % 95 % 0 % 1022,9 hPa 0,0 l/m 0,3 km/h (0 Bft) W 270 0 min 0,0 UV-I 0,7 C 1,7 C 2,3 km/h (1 Bft)
22.12.2011 05:35 2,0 C 8,9 C 2,0 C 1,9 C 1,8 C 0,0 C 91 % 95 % 0 % 1022,9 hPa 0,0 l/m 1,1 km/h (1 Bft) W-SW 247 0 min 0,0 UV-I 0,7 C 1,8 C 3,5 km/h (1 Bft)
22.12.2011 05:40 2,1 C 8,9 C 2,0 C 2,0 C 1,8 C 0,0 C 92 % 95 % 0 % 1022,9 hPa 0,0 l/m 1,3 km/h (1 Bft) W-SW 247 0 min 0,0 UV-I 0,9 C 1,8 C 2,9 km/h (1 Bft)
22.12.2011 05:45 2,0 C 8,9 C 2,1 C 1,9 C 1,8 C 0,0 C 91 % 95 % 0 % 1022,9 hPa 0,0 l/m 0,6 km/h (0 Bft) W 270 0 min 0,0 UV-I 0,7 C 1,8 C 0,0 km/h (0 Bft)
22.12.2011 05:50 2,1 C 8,9 C 2,0 C 2,0 C 1,7 C 0,0 C 91 % 95 % 0 % 1022,9 hPa 0,0 l/m 0,2 km/h (0 Bft) W-SW 247 0 min 0,0 UV-I 0,8 C 1,7 C 0,0 km/h (0 Bft)
22.12.2011 05:55 2,0 C 8,9 C 2,0 C 1,9 C 1,6 C 0,0 C 91 % 95 % 0 % 1022,9 hPa 0,0 l/m 0,2 km/h (0 Bft) S 180 0 min 0,0 UV-I 0,7 C 1,6 C 0,0 km/h (0 Bft)
22.12.2011 06:00 1,9 C 8,8 C 1,9 C 1,8 C 1,5 C 0,0 C 91 % 95 % 0 % 1022,9 hPa 0,0 l/m 0,5 km/h (0 Bft) W-SW 247 0 min 0,0 UV-I 0,6 C 1,5 C 0,0 km/h (0 Bft)
22.12.2011 06:04 1,9 C 8,8 C 1,9 C 1,8 C 1,6 C 0,0 C 91 % 95 % 0 % 1022,9 hPa 0,0 l/m 0,5 km/h (0 Bft) W-SW 247 0 min 0,0 UV-I 0,6 C 1,6 C 1,8 km/h (1 Bft)
22.12.2011 06:09 1,9 C 8,8 C 2,0 C 1,8 C 1,6 C 0,0 C 91 % 95 % 0 % 1022,9 hPa 0,0 l/m 0,0 km/h (0 Bft) W-SW 247 0 min 0,0 UV-I 0,6 C 1,6 C 0,0 km/h (0 Bft)
22.12.2011 06:14 1,9 C 8,8 C 1,9 C 1,8 C 1,6 C 0,0 C 91 % 95 % 0 % 1022,9 hPa 0,0 l/m 0,0 km/h (0 Bft) W-SW 247 0 min 0,0 UV-I 0,6 C 1,6 C 0,0 km/h (0 Bft)
22.12.2011 06:21 1,9 C 8,8 C 1,9 C 1,8 C 1,6 C 0,0 C 91 % 95 % 0 % 1022,9 hPa 0,0 l/m 0,0 km/h (0 Bft) W-SW 247 0 min 0,0 UV-I 0,6 C 1,6 C 0,0 km/h (0 Bft)
22.12.2011 06:25 1,9 C 8,8 C 1,9 C 1,8 C 1,5 C 0,0 C 91 % 95 % 0 % 1022,9 hPa 0,0 l/m 0,0 km/h (0 Bft) O 90 0 min 0,0 UV-I 0,6 C 1,5 C 0,0 km/h (0 Bft)
22.12.2011 06:30 1,9 C 8,8 C 1,9 C 1,8 C 1,5 C 0,0 C 91 % 95 % 0 % 1022,9 hPa 0,0 l/m 0,0 km/h (0 Bft) O-SO 112 0 min 0,0 UV-I 0,6 C 1,5 C 0,0 km/h (0 Bft)
22.12.2011 06:35 1,8 C 8,9 C 1,9 C 1,7 C 1,5 C 0,0 C 91 % 95 % 0 % 1022,9 hPa 0,0 l/m 0,0 km/h (0 Bft) O-NO 67 0 min 0,0 UV-I 0,5 C 1,5 C 0,0 km/h (0 Bft)
22.12.2011 06:40 1,8 C 8,9 C 1,9 C 1,7 C 1,5 C 0,0 C 91 % 95 % 0 % 1022,9 hPa 0,0 l/m 0,0 km/h (0 Bft) O 90 0 min 0,0 UV-I 0,5 C 1,5 C 0,0 km/h (0 Bft)
22.12.2011 06:45 1,9 C 8,9 C 1,8 C 1,8 C 1,5 C 0,0 C 91 % 95 % 0 % 1022,9 hPa 0,0 l/m 0,0 km/h (0 Bft) O-SO 112 0 min 0,0 UV-I 0,6 C 1,5 C 0,0 km/h (0 Bft)
22.12.2011 06:50 1,8 C 8,9 C 1,7 C 1,7 C 1,4 C 0,0 C 91 % 95 % 0 % 1022,9 hPa 0,0 l/m 0,0 km/h (0 Bft) O 90 0 min 0,0 UV-I 0,5 C 1,4 C 0,0 km/h (0 Bft)
22.12.2011 06:55 1,7 C 8,9 C 1,7 C 1,6 C 1,4 C 0,0 C 91 % 95 % 0 % 1022,9 hPa 0,0 l/m 0,0 km/h (0 Bft) O-NO 67 0 min 0,0 UV-I 0,4 C 1,4 C 0,0 km/h (0 Bft)
22.12.2011 07:00 1,7 C 8,9 C 1,7 C 1,6 C 1,4 C 0,0 C 91 % 95 % 0 % 1023,3 hPa 0,0 l/m 0,0 km/h (0 Bft) O-NO 67 0 min 0,0 UV-I 0,4 C 1,4 C 0,0 km/h (0 Bft)
22.12.2011 07:05 1,7 C 8,9 C 1,7 C 1,6 C 1,5 C 0,0 C 91 % 95 % 0 % 1023,3 hPa 0,0 l/m 0,0 km/h (0 Bft) O-NO 67 0 min 0,0 UV-I 0,4 C 1,5 C 0,0 km/h (0 Bft)
22.12.2011 07:10 1,7 C 8,9 C 1,9 C 1,6 C 1,5 C 0,0 C 91 % 95 % 0 % 1023,3 hPa 0,0 l/m 0,0 km/h (0 Bft) O-NO 67 0 min 0,0 UV-I 0,4 C 1,5 C 0,0 km/h (0 Bft)
22.12.2011 07:15 1,8 C 8,9 C 1,9 C 1,7 C 1,5 C 0,0 C 91 % 95 % 0 % 1023,3 hPa 0,0 l/m 0,0 km/h (0 Bft) N 360 0 min 0,0 UV-I 0,5 C 1,5 C 0,0 km/h (0 Bft)
22.12.2011 07:20 1,8 C 8,9 C 1,9 C 1,7 C 1,5 C 0,0 C 91 % 95 % 0 % 1023,3 hPa 0,0 l/m 0,0 km/h (0 Bft) N 360 0 min 0,0 UV-I 0,5 C 1,5 C 0,0 km/h (0 Bft)
22.12.2011 07:25 1,7 C 8,9 C 1,9 C 1,6 C 1,5 C 0,0 C 92 % 95 % 0 % 1023,3 hPa 0,0 l/m 0,0 km/h (0 Bft) O-NO 67 0 min 0,0 UV-I 0,5 C 1,5 C 0,0 km/h (0 Bft)
22.12.2011 07:30 1,7 C 8,9 C 1,9 C 1,6 C 1,4 C 0,0 C 91 % 95 % 0 % 1023,3 hPa 0,0 l/m 0,0 km/h (0 Bft) O-NO 67 0 min 0,0 UV-I 0,4 C 1,4 C 0,0 km/h (0 Bft)
22.12.2011 07:35 1,7 C 8,9 C 1,8 C 1,6 C 1,4 C 0,0 C 92 % 95 % 0 % 1023,3 hPa 0,0 l/m 0,0 km/h (0 Bft) O-NO 67 0 min 0,0 UV-I 0,5 C 1,4 C 0,0 km/h (0 Bft)
22.12.2011 07:40 1,7 C 8,9 C 1,7 C 1,6 C 1,4 C 0,0 C 91 % 95 % 0 % 1023,8 hPa 0,0 l/m 0,0 km/h (0 Bft) O-NO 67 0 min 0,0 UV-I 0,4 C 1,4 C 0,0 km/h (0 Bft)
22.12.2011 07:45 1,7 C 8,9 C 1,8 C 1,6 C 1,4 C 0,0 C 92 % 95 % 0 % 1023,8 hPa 0,0 l/m 0,0 km/h (0 Bft) O-NO 67 0 min 0,0 UV-I 0,5 C 1,4 C 0,0 km/h (0 Bft)
22.12.2011 07:50 1,7 C 8,9 C 1,7 C 1,6 C 1,4 C 0,0 C 92 % 95 % 0 % 1023,8 hPa 0,0 l/m 0,0 km/h (0 Bft) O-NO 67 0 min 0,0 UV-I 0,5 C 1,4 C 0,0 km/h (0 Bft)
22.12.2011 07:55 1,6 C 8,9 C 1,7 C 1,5 C 1,4 C 0,0 C 92 % 95 % 0 % 1023,8 hPa 0,0 l/m 0,0 km/h (0 Bft) O 90 0 min 0,0 UV-I 0,4 C 1,4 C 0,0 km/h (0 Bft)
22.12.2011 08:00 1,7 C 8,9 C 1,8 C 1,6 C 1,5 C 0,0 C 92 % 95 % 0 % 1023,4 hPa 0,0 l/m 0,0 km/h (0 Bft) O-NO 67 0 min 0,0 UV-I 0,5 C 1,5 C 0,0 km/h (0 Bft)
22.12.2011 08:04 1,8 C 8,9 C 1,9 C 1,7 C 1,6 C 0,0 C 92 % 95 % 0 % 1023,4 hPa 0,0 l/m 0,0 km/h (0 Bft) O-NO 67 0 min 0,0 UV-I 0,6 C 1,6 C 0,0 km/h (0 Bft)
22.12.2011 08:09 1,8 C 8,9 C 1,9 C 1,7 C 1,6 C 0,0 C 92 % 95 % 0 % 1023,4 hPa 0,0 l/m 0,0 km/h (0 Bft) O-NO 67 0 min 0,0 UV-I 0,6 C 1,6 C 0,0 km/h (0 Bft)
22.12.2011 08:14 1,7 C 8,9 C 1,9 C 1,7 C 1,6 C 0,0 C 92 % 95 % 0 % 1023,4 hPa 0,0 l/m 0,0 km/h (0 Bft) O-NO 67 0 min 0,0 UV-I 0,5 C 1,6 C 0,0 km/h (0 Bft)
22.12.2011 08:21 1,7 C 8,9 C 1,8 C 1,7 C 1,6 C 0,0 C 92 % 95 % 0 % 1023,4 hPa 0,0 l/m 0,0 km/h (0 Bft) O-SO 112 0 min 0,0 UV-I 0,5 C 1,6 C 0,0 km/h (0 Bft)
22.12.2011 08:25 1,8 C 8,9 C 1,9 C 1,7 C 1,6 C 0,0 C 92 % 95 % 0 % 1023,4 hPa 0,0 l/m 0,0 km/h (0 Bft) O-NO 67 0 min 0,0 UV-I 0,6 C 1,6 C 0,0 km/h (0 Bft)
22.12.2011 08:30 1,9 C 8,9 C 1,9 C 1,8 C 1,7 C 0,0 C 92 % 95 % 0 % 1023,4 hPa 0,0 l/m 0,0 km/h (0 Bft) S-SO 157 0 min 0,0 UV-I 0,7 C 1,7 C 0,0 km/h (0 Bft)
22.12.2011 08:35 1,9 C 8,9 C 1,9 C 1,8 C 1,7 C 0,0 C 92 % 95 % 0 % 1023,4 hPa 0,0 l/m 0,0 km/h (0 Bft) O-SO 112 0 min 0,0 UV-I 0,7 C 1,7 C 0,0 km/h (0 Bft)
22.12.2011 08:40 1,9 C 8,9 C 1,9 C 1,9 C 1,8 C 0,0 C 92 % 95 % 0 % 1023,8 hPa 0,0 l/m 0,0 km/h (0 Bft) O-NO 67 0 min 0,0 UV-I 0,7 C 1,8 C 0,0 km/h (0 Bft)
22.12.2011 08:45 1,9 C 8,9 C 2,0 C 1,9 C 1,8 C 0,0 C 92 % 95 % 0 % 1023,8 hPa 0,0 l/m 0,2 km/h (0 Bft) S 180 0 min 0,0 UV-I 0,7 C 1,8 C 0,0 km/h (0 Bft)
22.12.2011 08:50 1,9 C 8,9 C 2,0 C 1,9 C 1,9 C 0,0 C 92 % 95 % 0 % 1023,8 hPa 0,0 l/m 0,2 km/h (0 Bft) SO 135 0 min 0,0 UV-I 0,7 C 1,9 C 0,0 km/h (0 Bft)
22.12.2011 08:55 2,0 C 8,9 C 2,0 C 2,0 C 2,0 C 0,0 C 92 % 95 % 0 % 1023,8 hPa 0,0 l/m 0,2 km/h (0 Bft) S 180 0 min 0,0 UV-I 0,8 C 2,0 C 0,0 km/h (0 Bft)
22.12.2011 09:00 2,1 C 8,9 C 2,1 C 2,1 C 2,1 C 0,0 C 92 % 95 % 0 % 1023,5 hPa 0,0 l/m 0,3 km/h (0 Bft) SW 225 0 min 0,0 UV-I 0,9 C 2,1 C 0,0 km/h (0 Bft)
22.12.2011 09:04 2,0 C 8,9 C 2,2 C 2,3 C 2,3 C 0,3 C 92 % 95 % 8 % 1023,5 hPa 0,0 l/m 1,1 km/h (1 Bft) S 180 0 min 0,0 UV-I 0,8 C 2,3 C 1,6 km/h (1 Bft)
22.12.2011 09:09 2,1 C 8,9 C 2,3 C 2,4 C 2,4 C 0,3 C 92 % 95 % 8 % 1023,5 hPa 0,0 l/m 1,3 km/h (1 Bft) S 180 0 min 0,0 UV-I 0,9 C 2,4 C 0,0 km/h (0 Bft)
22.12.2011 09:14 2,3 C 8,9 C 2,4 C 2,5 C 2,5 C 0,2 C 92 % 95 % 5 % 1023,5 hPa 0,0 l/m 0,6 km/h (0 Bft) W 270 0 min 0,0 UV-I 1,1 C 2,5 C 1,6 km/h (1 Bft)
22.12.2011 09:21 2,2 C 8,9 C 2,4 C 2,6 C 2,6 C 0,4 C 92 % 95 % 11 % 1023,8 hPa 0,0 l/m 0,8 km/h (0 Bft) W-SW 247 0 min 0,0 UV-I 1,0 C 2,6 C 0,0 km/h (0 Bft)
22.12.2011 09:25 2,4 C 8,9 C 2,5 C 2,7 C 2,7 C 0,3 C 92 % 95 % 8 % 1023,8 hPa 0,0 l/m 1,6 km/h (1 Bft) S-SO 157 0 min 0,0 UV-I 1,2 C 2,7 C 4,2 km/h (1 Bft)
22.12.2011 09:30 2,5 C 8,8 C 2,6 C 2,9 C 2,9 C 0,4 C 92 % 95 % 11 % 1023,8 hPa 0,0 l/m 1,6 km/h (1 Bft) O-NO 67 0 min 0,0 UV-I 1,3 C 2,9 C 10,0 km/h (2 Bft)
22.12.2011 09:35 2,5 C 8,8 C 2,7 C 3,0 C 3,0 C 0,5 C 92 % 95 % 13 % 1023,8 hPa 0,0 l/m 1,0 km/h (0 Bft) SO 135 0 min 0,0 UV-I 1,3 C 3,0 C 0,0 km/h (0 Bft)
22.12.2011 09:40 2,6 C 8,8 C 2,6 C 3,1 C 3,1 C 0,5 C 92 % 95 % 13 % 1024,1 hPa 0,0 l/m 0,6 km/h (0 Bft) W-SW 247 0 min 0,0 UV-I 1,4 C 3,1 C 3,1 km/h (1 Bft)
22.12.2011 09:45 2,7 C 8,8 C 2,7 C 3,1 C 3,1 C 0,4 C 92 % 95 % 11 % 1024,1 hPa 0,0 l/m 1,0 km/h (0 Bft) SO 135 0 min 0,0 UV-I 1,5 C 3,1 C 2,9 km/h (1 Bft)
22.12.2011 09:50 2,7 C 8,8 C 2,7 C 3,0 C 3,0 C 0,3 C 92 % 95 % 8 % 1024,1 hPa 0,0 l/m 0,8 km/h (0 Bft) NW 315 0 min 0,0 UV-I 1,5 C 3,0 C 0,0 km/h (0 Bft)
22.12.2011 09:55 2,7 C 8,8 C 2,7 C 3,0 C 3,0 C 0,3 C 92 % 95 % 8 % 1024,1 hPa 0,0 l/m 0,8 km/h (0 Bft) S-SW 202 0 min 0,0 UV-I 1,5 C 3,0 C 0,0 km/h (0 Bft)
22.12.2011 10:00 2,7 C 8,8 C 2,7 C 3,1 C 3,1 C 0,4 C 91 % 95 % 11 % 1023,6 hPa 0,0 l/m 1,0 km/h (0 Bft) S 180 0 min 0,0 UV-I 1,4 C 3,1 C 3,1 km/h (1 Bft)
22.12.2011 10:04 2,8 C 8,8 C 2,8 C 3,2 C 3,2 C 0,4 C 91 % 95 % 11 % 1023,6 hPa 0,0 l/m 1,1 km/h (1 Bft) N 360 0 min 0,0 UV-I 1,5 C 3,2 C 2,1 km/h (1 Bft)
22.12.2011 10:09 2,8 C 8,8 C 2,8 C 3,3 C 3,3 C 0,5 C 91 % 95 % 13 % 1023,6 hPa 0,0 l/m 1,3 km/h (1 Bft) S 180 0 min 0,0 UV-I 1,5 C 3,3 C 2,6 km/h (1 Bft)
22.12.2011 10:14 2,8 C 8,8 C 2,9 C 3,3 C 3,3 C 0,5 C 91 % 95 % 13 % 1023,6 hPa 0,0 l/m 1,3 km/h (1 Bft) O-SO 112 0 min 0,0 UV-I 1,5 C 3,3 C 0,0 km/h (0 Bft)
22.12.2011 10:20 2,9 C 8,8 C 2,9 C 3,5 C 3,5 C 0,6 C 91 % 95 % 16 % 1023,6 hPa 0,0 l/m 1,4 km/h (1 Bft) S-SO 157 0 min 0,0 UV-I 1,6 C 3,5 C 1,8 km/h (1 Bft)
22.12.2011 10:25 3,0 C 8,7 C 2,9 C 3,7 C 3,7 C 0,7 C 91 % 95 % 18 % 1023,6 hPa 0,0 l/m 0,8 km/h (0 Bft) O-SO 112 0 min 0,0 UV-I 1,7 C 3,7 C 2,7 km/h (1 Bft)
22.12.2011 10:30 3,1 C 8,7 C 3,1 C 3,8 C 3,8 C 0,7 C 91 % 95 % 18 % 1023,6 hPa 0,0 l/m 1,3 km/h (1 Bft) SO 135 0 min 0,0 UV-I 1,8 C 3,8 C 2,3 km/h (1 Bft)
22.12.2011 10:35 3,1 C 8,7 C 3,1 C 3,9 C 3,9 C 0,8 C 91 % 95 % 21 % 1023,6 hPa 0,0 l/m 1,9 km/h (1 Bft) O-SO 112 0 min 0,0 UV-I 1,8 C 3,9 C 0,0 km/h (0 Bft)
22.12.2011 10:40 3,2 C 8,7 C 3,1 C 3,9 C 3,9 C 0,7 C 91 % 95 % 18 % 1023,6 hPa 0,0 l/m 2,4 km/h (1 Bft) SW 225 0 min 0,0 UV-I 1,9 C 3,9 C 8,9 km/h (2 Bft)
22.12.2011 10:45 3,2 C 8,7 C 3,2 C 3,4 C 3,4 C 0,2 C 90 % 95 % 5 % 1023,6 hPa 0,0 l/m 3,9 km/h (1 Bft) W-SW 247 0 min 0,0 UV-I 1,7 C 3,4 C 9,3 km/h (2 Bft)
22.12.2011 10:50 3,3 C 8,6 C 3,2 C 3,2 C 3,0 C 0,0 C 90 % 95 % 0 % 1023,6 hPa 0,0 l/m 4,8 km/h (1 Bft) SO 135 0 min 0,0 UV-I 1,8 C 1,9 C 16,1 km/h (3 Bft)
22.12.2011 10:55 3,4 C 8,6 C 3,3 C 3,4 C 3,3 C 0,0 C 90 % 95 % 0 % 1023,6 hPa 0,0 l/m 4,8 km/h (1 Bft) O 90 0 min 0,0 UV-I 1,9 C 2,2 C 4,2 km/h (1 Bft)
22.12.2011 11:00 3,5 C 8,6 C 3,3 C 3,8 C 3,8 C 0,3 C 89 % 95 % 8 % 1023,3 hPa 0,0 l/m 3,7 km/h (1 Bft) SW 225 0 min 0,0 UV-I 1,9 C 3,8 C 0,0 km/h (0 Bft)
22.12.2011 11:04 3,6 C 8,6 C 3,3 C 4,1 C 4,1 C 0,5 C 89 % 95 % 13 % 1023,3 hPa 0,0 l/m 3,5 km/h (1 Bft) O 90 0 min 0,0 UV-I 2,0 C 4,1 C 0,0 km/h (0 Bft)
22.12.2011 11:09 3,6 C 8,6 C 3,4 C 4,4 C 4,4 C 0,8 C 89 % 95 % 21 % 1023,3 hPa 0,0 l/m 2,9 km/h (1 Bft) NW 315 0 min 0,0 UV-I 2,0 C 4,4 C 3,2 km/h (1 Bft)
22.12.2011 11:14 3,7 C 8,6 C 3,4 C 4,6 C 4,6 C 0,9 C 89 % 95 % 24 % 1023,3 hPa 0,0 l/m 2,1 km/h (1 Bft) S-SO 157 0 min 0,0 UV-I 2,1 C 4,6 C 3,2 km/h (1 Bft)
22.12.2011 11:20 3,8 C 8,6 C 3,5 C 4,3 C 4,3 C 0,5 C 89 % 95 % 13 % 1023,5 hPa 0,0 l/m 3,5 km/h (1 Bft) NO 45 0 min 0,0 UV-I 2,2 C 4,3 C 4,8 km/h (1 Bft)
22.12.2011 11:25 3,9 C 8,6 C 3,7 C 3,7 C 3,4 C 0,0 C 88 % 95 % 0 % 1023,5 hPa 0,0 l/m 5,5 km/h (1 Bft) W-SW 247 0 min 0,0 UV-I 2,1 C 2,1 C 12,1 km/h (2 Bft)
22.12.2011 11:30 3,9 C 8,6 C 3,6 C 3,8 C 3,7 C 0,0 C 88 % 95 % 0 % 1023,5 hPa 0,0 l/m 5,3 km/h (1 Bft) W 270 0 min 0,0 UV-I 2,1 C 2,5 C 6,8 km/h (2 Bft)
22.12.2011 11:35 4,0 C 8,6 C 3,7 C 4,6 C 4,6 C 0,6 C 88 % 95 % 16 % 1023,5 hPa 0,0 l/m 3,5 km/h (1 Bft) NW 315 0 min 0,0 UV-I 2,2 C 4,6 C 2,1 km/h (1 Bft)
22.12.2011 11:40 4,0 C 8,6 C 3,7 C 5,1 C 5,1 C 1,1 C 88 % 95 % 29 % 1023,1 hPa 0,0 l/m 2,7 km/h (1 Bft) NW 315 0 min 0,0 UV-I 2,2 C 5,1 C 4,2 km/h (1 Bft)
22.12.2011 11:45 4,1 C 8,6 C 3,8 C 4,7 C 4,7 C 0,6 C 87 % 95 % 16 % 1023,1 hPa 0,0 l/m 4,2 km/h (1 Bft) O-SO 112 0 min 0,0 UV-I 2,1 C 4,7 C 4,3 km/h (1 Bft)
22.12.2011 11:50 4,1 C 8,6 C 3,9 C 4,9 C 4,9 C 0,8 C 87 % 95 % 21 % 1023,1 hPa 0,0 l/m 3,7 km/h (1 Bft) NW 315 0 min 0,0 UV-I 2,1 C 4,9 C 2,3 km/h (1 Bft)
22.12.2011 11:55 4,2 C 8,6 C 3,9 C 5,1 C 5,1 C 0,9 C 87 % 95 % 24 % 1023,1 hPa 0,0 l/m 2,9 km/h (1 Bft) W 270 0 min 0,0 UV-I 2,2 C 5,1 C 7,6 km/h (2 Bft)
22.12.2011 12:00 4,2 C 8,6 C 3,9 C 5,2 C 5,2 C 1,0 C 87 % 95 % 26 % 1023,1 hPa 0,0 l/m 2,6 km/h (1 Bft) NW 315 0 min 0,0 UV-I 2,2 C 5,2 C 2,4 km/h (1 Bft)
22.12.2011 12:04 4,3 C 8,7 C 4,0 C 5,4 C 5,4 C 1,1 C 87 % 95 % 29 % 1023,1 hPa 0,0 l/m 2,3 km/h (1 Bft) S-SW 202 0 min 0,0 UV-I 2,3 C 5,4 C 8,9 km/h (2 Bft)
22.12.2011 12:09 4,3 C 8,6 C 4,0 C 5,6 C 5,6 C 1,3 C 87 % 95 % 34 % 1023,1 hPa 0,0 l/m 2,6 km/h (1 Bft) SO 135 0 min 0,0 UV-I 2,3 C 5,6 C 7,7 km/h (2 Bft)
22.12.2011 12:14 4,3 C 8,6 C 4,1 C 5,2 C 5,2 C 0,9 C 87 % 95 % 24 % 1023,1 hPa 0,0 l/m 3,7 km/h (1 Bft) W-SW 247 0 min 0,0 UV-I 2,3 C 5,2 C 7,6 km/h (2 Bft)
22.12.2011 12:20 4,4 C 8,7 C 4,1 C 5,2 C 5,2 C 0,8 C 87 % 95 % 21 % 1023,5 hPa 0,0 l/m 3,5 km/h (1 Bft) N-NO 22 0 min 0,0 UV-I 2,4 C 5,2 C 3,1 km/h (1 Bft)
22.12.2011 12:25 4,4 C 8,6 C 4,1 C 5,2 C 5,2 C 0,8 C 87 % 95 % 21 % 1023,5 hPa 0,0 l/m 3,5 km/h (1 Bft) S 180 0 min 0,0 UV-I 2,4 C 5,2 C 7,9 km/h (2 Bft)
22.12.2011 12:30 4,5 C 8,6 C 4,1 C 5,2 C 5,2 C 0,7 C 86 % 95 % 18 % 1023,5 hPa 0,0 l/m 3,4 km/h (1 Bft) S 180 0 min 0,0 UV-I 2,4 C 5,2 C 4,0 km/h (1 Bft)
22.12.2011 12:35 4,4 C 8,6 C 4,2 C 5,4 C 5,4 C 1,0 C 87 % 95 % 26 % 1023,5 hPa 0,0 l/m 3,4 km/h (1 Bft) O-NO 67 0 min 0,0 UV-I 2,4 C 5,4 C 3,1 km/h (1 Bft)
22.12.2011 12:40 4,4 C 8,6 C 4,3 C 5,6 C 5,6 C 1,2 C 87 % 95 % 32 % 1022,7 hPa 0,0 l/m 2,7 km/h (1 Bft) O-SO 112 0 min 0,0 UV-I 2,4 C 5,6 C 1,8 km/h (1 Bft)
22.12.2011 12:45 4,5 C 8,6 C 4,3 C 5,8 C 5,8 C 1,3 C 86 % 95 % 34 % 1022,7 hPa 0,0 l/m 2,7 km/h (1 Bft) W-SW 247 0 min 0,0 UV-I 2,4 C 5,8 C 4,5 km/h (1 Bft)
22.12.2011 12:50 4,6 C 8,6 C 4,4 C 5,9 C 5,9 C 1,3 C 86 % 95 % 34 % 1022,7 hPa 0,0 l/m 2,7 km/h (1 Bft) N-NO 22 0 min 0,0 UV-I 2,5 C 5,9 C 2,4 km/h (1 Bft)
22.12.2011 12:55 4,6 C 8,6 C 4,4 C 6,0 C 6,0 C 1,4 C 86 % 95 % 37 % 1022,7 hPa 0,0 l/m 2,6 km/h (1 Bft) SW 225 0 min 0,0 UV-I 2,5 C 6,0 C 6,9 km/h (2 Bft)
22.12.2011 13:00 4,7 C 8,6 C 4,4 C 5,9 C 5,9 C 1,2 C 86 % 95 % 32 % 1022,7 hPa 0,0 l/m 2,9 km/h (1 Bft) SW 225 0 min 0,0 UV-I 2,6 C 5,9 C 7,2 km/h (2 Bft)
22.12.2011 13:04 4,7 C 8,7 C 4,5 C 5,8 C 5,8 C 1,1 C 86 % 95 % 29 % 1022,7 hPa 0,0 l/m 3,4 km/h (1 Bft) NW 315 0 min 0,0 UV-I 2,6 C 5,8 C 3,5 km/h (1 Bft)
22.12.2011 13:09 4,8 C 8,6 C 4,5 C 6,0 C 6,0 C 1,2 C 86 % 95 % 32 % 1022,7 hPa 0,0 l/m 2,7 km/h (1 Bft) W-SW 247 0 min 0,0 UV-I 2,7 C 6,0 C 12,4 km/h (3 Bft)
22.12.2011 13:14 4,8 C 8,6 C 4,7 C 6,2 C 6,2 C 1,4 C 86 % 95 % 37 % 1022,7 hPa 0,0 l/m 3,1 km/h (1 Bft) SW 225 0 min 0,0 UV-I 2,7 C 6,2 C 3,5 km/h (1 Bft)
22.12.2011 13:21 4,9 C 8,6 C 4,7 C 6,2 C 6,2 C 1,3 C 86 % 94 % 34 % 1022,1 hPa 0,0 l/m 3,4 km/h (1 Bft) NW 315 0 min 0,0 UV-I 2,8 C 6,2 C 4,8 km/h (1 Bft)
22.12.2011 13:25 4,9 C 8,7 C 4,9 C 6,1 C 6,1 C 1,2 C 86 % 95 % 32 % 1022,1 hPa 0,0 l/m 2,9 km/h (1 Bft) SW 225 0 min 0,0 UV-I 2,8 C 6,1 C 4,7 km/h (1 Bft)
22.12.2011 13:30 4,9 C 8,7 C 4,7 C 5,9 C 5,9 C 1,0 C 86 % 94 % 26 % 1022,1 hPa 0,0 l/m 3,1 km/h (1 Bft) N-NW 337 0 min 0,0 UV-I 2,8 C 5,9 C 6,1 km/h (2 Bft)
22.12.2011 13:35 4,8 C 8,7 C 4,7 C 5,7 C 5,7 C 0,9 C 86 % 94 % 24 % 1022,1 hPa 0,0 l/m 3,1 km/h (1 Bft) W-SW 247 0 min 0,0 UV-I 2,7 C 5,7 C 2,9 km/h (1 Bft)
22.12.2011 13:40 4,8 C 8,7 C 4,7 C 5,6 C 5,6 C 0,8 C 86 % 94 % 21 % 1022,1 hPa 0,0 l/m 3,1 km/h (1 Bft) SO 135 0 min 0,0 UV-I 2,7 C 5,6 C 5,0 km/h (1 Bft)
22.12.2011 13:45 4,8 C 8,8 C 4,8 C 5,6 C 5,6 C 0,8 C 86 % 95 % 21 % 1022,1 hPa 0,0 l/m 2,4 km/h (1 Bft) SW 225 0 min 0,0 UV-I 2,7 C 5,6 C 2,6 km/h (1 Bft)
22.12.2011 13:50 4,8 C 8,7 C 4,8 C 5,5 C 5,5 C 0,7 C 86 % 95 % 18 % 1022,1 hPa 0,0 l/m 2,4 km/h (1 Bft) W-SW 247 0 min 0,0 UV-I 2,7 C 5,5 C 5,8 km/h (2 Bft)
22.12.2011 13:55 4,8 C 8,8 C 4,8 C 5,3 C 5,3 C 0,5 C 86 % 95 % 13 % 1022,1 hPa 0,0 l/m 3,5 km/h (1 Bft) W-SW 247 0 min 0,0 UV-I 2,7 C 5,3 C 9,0 km/h (2 Bft)
22.12.2011 14:00 4,9 C 8,8 C 4,8 C 5,3 C 5,3 C 0,4 C 86 % 95 % 11 % 1021,3 hPa 0,0 l/m 3,2 km/h (1 Bft) S 180 0 min 0,0 UV-I 2,8 C 5,3 C 3,4 km/h (1 Bft)
22.12.2011 14:04 4,8 C 8,8 C 4,9 C 5,5 C 5,5 C 0,7 C 86 % 95 % 18 % 1021,3 hPa 0,0 l/m 2,4 km/h (1 Bft) W-SW 247 0 min 0,0 UV-I 2,7 C 5,5 C 6,1 km/h (2 Bft)
22.12.2011 14:09 4,8 C 8,8 C 4,8 C 5,5 C 5,5 C 0,7 C 85 % 95 % 18 % 1021,3 hPa 0,0 l/m 2,9 km/h (1 Bft) S-SW 202 0 min 0,0 UV-I 2,5 C 5,5 C 1,8 km/h (1 Bft)
22.12.2011 14:14 4,8 C 8,8 C 4,8 C 5,1 C 5,1 C 0,3 C 85 % 95 % 8 % 1021,3 hPa 0,0 l/m 4,0 km/h (1 Bft) S-SO 157 0 min 0,0 UV-I 2,5 C 5,1 C 6,3 km/h (2 Bft)
22.12.2011 14:21 4,8 C 8,8 C 4,9 C 4,9 C 4,9 C 0,1 C 85 % 95 % 3 % 1021,3 hPa 0,0 l/m 4,0 km/h (1 Bft) NW 315 0 min 0,0 UV-I 2,5 C 4,9 C 3,7 km/h (1 Bft)
22.12.2011 14:25 4,8 C 8,8 C 4,8 C 5,2 C 5,2 C 0,4 C 85 % 95 % 11 % 1021,3 hPa 0,0 l/m 3,4 km/h (1 Bft) W-SW 247 0 min 0,0 UV-I 2,5 C 5,2 C 4,2 km/h (1 Bft)
22.12.2011 14:30 4,8 C 8,8 C 4,8 C 5,4 C 5,4 C 0,6 C 85 % 95 % 16 % 1021,3 hPa 0,0 l/m 1,6 km/h (1 Bft) NW 315 0 min 0,0 UV-I 2,5 C 5,4 C 0,0 km/h (0 Bft)
22.12.2011 14:35 4,8 C 8,8 C 4,8 C 5,4 C 5,4 C 0,6 C 85 % 95 % 16 % 1021,3 hPa 0,0 l/m 1,3 km/h (1 Bft) NW 315 0 min 0,0 UV-I 2,5 C 5,4 C 5,8 km/h (2 Bft)
22.12.2011 14:40 4,8 C 8,8 C 4,8 C 5,4 C 5,4 C 0,6 C 86 % 94 % 16 % 1021,8 hPa 0,0 l/m 1,6 km/h (1 Bft) W 270 0 min 0,0 UV-I 2,7 C 5,4 C 4,8 km/h (1 Bft)
22.12.2011 14:45 4,8 C 8,8 C 4,7 C 5,3 C 5,3 C 0,5 C 85 % 94 % 13 % 1021,8 hPa 0,0 l/m 2,4 km/h (1 Bft) SO 135 0 min 0,0 UV-I 2,5 C 5,3 C 0,0 km/h (0 Bft)
22.12.2011 14:50 4,8 C 8,8 C 4,7 C 5,2 C 5,2 C 0,4 C 86 % 94 % 11 % 1021,8 hPa 0,0 l/m 3,1 km/h (1 Bft) S-SW 202 0 min 0,0 UV-I 2,7 C 5,2 C 7,1 km/h (2 Bft)
22.12.2011 14:55 4,8 C 8,8 C 4,7 C 5,2 C 5,2 C 0,4 C 86 % 94 % 11 % 1021,8 hPa 0,0 l/m 2,9 km/h (1 Bft) S 180 0 min 0,0 UV-I 2,7 C 5,2 C 4,2 km/h (1 Bft)
22.12.2011 15:00 4,9 C 8,8 C 4,7 C 5,1 C 5,1 C 0,2 C 85 % 94 % 5 % 1022,2 hPa 0,0 l/m 3,4 km/h (1 Bft) SW 225 0 min 0,0 UV-I 2,6 C 5,1 C 8,2 km/h (2 Bft)
22.12.2011 15:04 4,8 C 8,8 C 4,7 C 5,2 C 5,2 C 0,4 C 85 % 94 % 11 % 1022,2 hPa 0,0 l/m 2,9 km/h (1 Bft) N-NO 22 0 min 0,0 UV-I 2,5 C 5,2 C 3,7 km/h (1 Bft)
22.12.2011 15:09 4,8 C 8,8 C 4,7 C 5,2 C 5,2 C 0,4 C 85 % 94 % 11 % 1022,2 hPa 0,0 l/m 2,4 km/h (1 Bft) W-SW 247 0 min 0,0 UV-I 2,5 C 5,2 C 6,8 km/h (2 Bft)
22.12.2011 15:14 4,8 C 8,9 C 4,7 C 5,1 C 5,1 C 0,3 C 85 % 94 % 8 % 1022,2 hPa 0,0 l/m 2,6 km/h (1 Bft) SW 225 0 min 0,0 UV-I 2,5 C 5,1 C 4,0 km/h (1 Bft)
22.12.2011 15:19 4,9 C 8,8 C 4,7 C 4,9 C 4,9 C 0,0 C 85 % 94 % 0 % 1022,1 hPa 0,0 l/m 3,4 km/h (1 Bft) SW 225 0 min 0,0 UV-I 2,6 C 4,9 C 8,2 km/h (2 Bft)
22.12.2011 15:25 4,8 C 8,9 C 4,7 C 5,1 C 5,1 C 0,3 C 85 % 94 % 8 % 1022,1 hPa 0,0 l/m 2,9 km/h (1 Bft) SW 225 0 min 0,0 UV-I 2,5 C 5,1 C 0,0 km/h (0 Bft)
22.12.2011 15:30 4,8 C 8,9 C 4,6 C 5,0 C 5,0 C 0,2 C 85 % 93 % 5 % 1022,1 hPa 0,0 l/m 2,6 km/h (1 Bft) S 180 0 min 0,0 UV-I 2,5 C 5,0 C 3,7 km/h (1 Bft)
22.12.2011 15:35 4,7 C 8,9 C 4,7 C 5,0 C 5,0 C 0,3 C 85 % 94 % 8 % 1022,1 hPa 0,0 l/m 2,6 km/h (1 Bft) N 360 0 min 0,0 UV-I 2,4 C 5,0 C 2,4 km/h (1 Bft)
22.12.2011 15:40 4,7 C 8,9 C 4,7 C 4,9 C 4,9 C 0,2 C 85 % 94 % 5 % 1022,2 hPa 0,0 l/m 2,4 km/h (1 Bft) S 180 0 min 0,0 UV-I 2,4 C 4,9 C 5,6 km/h (1 Bft)
22.12.2011 15:45 4,7 C 8,9 C 4,5 C 4,6 C 4,5 C 0,0 C 85 % 93 % 0 % 1022,2 hPa 0,0 l/m 3,5 km/h (1 Bft) S 180 0 min 0,0 UV-I 2,4 C 4,5 C 10,1 km/h (2 Bft)
22.12.2011 15:50 4,7 C 8,9 C 4,5 C 4,6 C 4,3 C 0,0 C 85 % 93 % 0 % 1022,2 hPa 0,0 l/m 3,7 km/h (1 Bft) S 180 0 min 0,0 UV-I 2,4 C 4,3 C 3,7 km/h (1 Bft)
22.12.2011 15:55 4,7 C 8,9 C 4,4 C 4,4 C 3,9 C 0,0 C 85 % 93 % 0 % 1022,2 hPa 0,0 l/m 4,0 km/h (1 Bft) SW 225 0 min 0,0 UV-I 2,4 C 3,9 C 9,7 km/h (2 Bft)
22.12.2011 16:00 4,6 C 8,9 C 4,5 C 4,3 C 3,7 C 0,0 C 85 % 93 % 0 % 1022,0 hPa 0,0 l/m 4,3 km/h (1 Bft) SO 135 0 min 0,0 UV-I 2,3 C 3,7 C 4,7 km/h (1 Bft)
22.12.2011 16:04 4,5 C 8,9 C 4,3 C 4,2 C 3,7 C 0,0 C 85 % 93 % 0 % 1022,0 hPa 0,0 l/m 4,2 km/h (1 Bft) N-NW 337 0 min 0,0 UV-I 2,2 C 3,7 C 3,5 km/h (1 Bft)
22.12.2011 16:09 4,4 C 8,9 C 4,3 C 4,3 C 4,2 C 0,0 C 85 % 93 % 0 % 1022,0 hPa 0,0 l/m 3,1 km/h (1 Bft) S-SW 202 0 min 0,0 UV-I 2,1 C 4,2 C 5,3 km/h (1 Bft)
22.12.2011 16:14 4,4 C 9,1 C 4,3 C 4,3 C 4,1 C 0,0 C 85 % 93 % 0 % 1022,0 hPa 0,0 l/m 2,9 km/h (1 Bft) SW 225 0 min 0,0 UV-I 2,1 C 4,1 C 3,5 km/h (1 Bft)
22.12.2011 16:19 4,3 C 9,1 C 4,3 C 4,1 C 3,6 C 0,0 C 86 % 93 % 0 % 1022,0 hPa 0,0 l/m 3,5 km/h (1 Bft) SO 135 0 min 0,0 UV-I 2,2 C 3,6 C 4,5 km/h (1 Bft)
22.12.2011 16:21 4,3 C 9,1 C 4,3 C 4,1 C 3,6 C 0,0 C 86 % 93 % 0 % 1022,0 hPa 0,0 l/m 3,5 km/h (1 Bft) SO 135 0 min 0,0 UV-I 2,2 C 3,6 C 4,5 km/h (1 Bft)
22.12.2011 16:25 4,2 C 9,1 C 4,1 C 3,9 C 3,4 C 0,0 C 86 % 93 % 0 % 1022,0 hPa 0,0 l/m 3,7 km/h (1 Bft) S 180 0 min 0,0 UV-I 2,1 C 3,4 C 2,3 km/h (1 Bft)
22.12.2011 16:30 4,3 C 9,1 C 4,0 C 4,0 C 3,4 C 0,0 C 86 % 93 % 0 % 1022,0 hPa 0,0 l/m 3,5 km/h (1 Bft) W-SW 247 0 min 0,0 UV-I 2,2 C 3,4 C 4,2 km/h (1 Bft)
22.12.2011 16:35 4,1 C 9,1 C 4,0 C 3,9 C 3,6 C 0,0 C 86 % 93 % 0 % 1022,0 hPa 0,0 l/m 3,1 km/h (1 Bft) W-NW 292 0 min 0,0 UV-I 2,0 C 3,6 C 2,7 km/h (1 Bft)
22.12.2011 16:40 4,0 C 9,2 C 3,9 C 3,9 C 3,7 C 0,0 C 86 % 93 % 0 % 1021,9 hPa 0,0 l/m 2,9 km/h (1 Bft) S 180 0 min 0,0 UV-I 1,9 C 3,7 C 5,0 km/h (1 Bft)
22.12.2011 16:45 4,0 C 9,2 C 3,9 C 3,9 C 3,7 C 0,0 C 87 % 93 % 0 % 1021,9 hPa 0,0 l/m 2,7 km/h (1 Bft) S 180 0 min 0,0 UV-I 2,0 C 3,7 C 3,4 km/h (1 Bft)
22.12.2011 16:50 4,0 C 9,2 C 3,8 C 3,9 C 3,6 C 0,0 C 87 % 93 % 0 % 1021,9 hPa 0,0 l/m 3,1 km/h (1 Bft) S-SO 157 0 min 0,0 UV-I 2,0 C 3,6 C 7,4 km/h (2 Bft)
22.12.2011 16:55 3,9 C 9,2 C 3,9 C 3,8 C 3,7 C 0,0 C 87 % 93 % 0 % 1021,9 hPa 0,0 l/m 2,4 km/h (1 Bft) SO 135 0 min 0,0 UV-I 1,9 C 3,7 C 1,8 km/h (1 Bft)
22.12.2011 17:00 3,9 C 9,2 C 3,8 C 3,8 C 3,7 C 0,0 C 87 % 93 % 0 % 1022,3 hPa 0,0 l/m 2,3 km/h (1 Bft) S 180 0 min 0,0 UV-I 1,9 C 3,7 C 4,3 km/h (1 Bft)
22.12.2011 17:04 3,9 C 9,2 C 3,9 C 3,9 C 3,8 C 0,0 C 87 % 93 % 0 % 1022,3 hPa 0,0 l/m 1,8 km/h (1 Bft) W-SW 247 0 min 0,0 UV-I 1,9 C 3,8 C 4,7 km/h (1 Bft)
22.12.2011 17:09 3,9 C 9,2 C 3,9 C 3,9 C 3,8 C 0,0 C 87 % 93 % 0 % 1022,3 hPa 0,0 l/m 2,1 km/h (1 Bft) O-NO 67 0 min 0,0 UV-I 1,9 C 3,8 C 2,3 km/h (1 Bft)
22.12.2011 17:14 3,9 C 9,2 C 3,9 C 3,9 C 3,8 C 0,0 C 88 % 93 % 0 % 1022,3 hPa 0,0 l/m 2,7 km/h (1 Bft) SW 225 0 min 0,0 UV-I 2,1 C 3,8 C 2,1 km/h (1 Bft)
22.12.2011 17:20 3,8 C 9,2 C 3,8 C 3,8 C 3,8 C 0,0 C 88 % 93 % 0 % 1022,3 hPa 0,0 l/m 2,7 km/h (1 Bft) SW 225 0 min 0,0 UV-I 2,0 C 3,8 C 6,1 km/h (2 Bft)
22.12.2011 17:25 3,8 C 9,2 C 3,8 C 3,7 C 3,6 C 0,0 C 88 % 93 % 0 % 1022,3 hPa 0,0 l/m 3,1 km/h (1 Bft) W-SW 247 0 min 0,0 UV-I 2,0 C 3,6 C 3,1 km/h (1 Bft)
22.12.2011 17:30 3,9 C 9,2 C 3,7 C 3,8 C 3,6 C 0,0 C 88 % 93 % 0 % 1022,3 hPa 0,0 l/m 3,1 km/h (1 Bft) N-NW 337 0 min 0,0 UV-I 2,1 C 3,6 C 2,4 km/h (1 Bft)
22.12.2011 17:35 3,9 C 9,1 C 3,8 C 3,9 C 3,8 C 0,0 C 88 % 93 % 0 % 1022,3 hPa 0,0 l/m 2,1 km/h (1 Bft) W-SW 247 0 min 0,0 UV-I 2,1 C 3,8 C 3,1 km/h (1 Bft)
22.12.2011 17:40 3,9 C 9,2 C 3,8 C 3,9 C 3,8 C 0,0 C 88 % 94 % 0 % 1022,3 hPa 0,0 l/m 1,3 km/h (1 Bft) NW 315 0 min 0,0 UV-I 2,1 C 3,8 C 2,3 km/h (1 Bft)
22.12.2011 17:45 3,8 C 9,2 C 3,8 C 3,8 C 3,8 C 0,0 C 88 % 94 % 0 % 1022,3 hPa 0,0 l/m 1,0 km/h (0 Bft) W-SW 247 0 min 0,0 UV-I 2,0 C 3,8 C 1,9 km/h (1 Bft)
22.12.2011 17:50 3,8 C 9,2 C 3,7 C 3,8 C 3,8 C 0,0 C 88 % 94 % 0 % 1022,3 hPa 0,0 l/m 1,0 km/h (0 Bft) S 180 0 min 0,0 UV-I 2,0 C 3,8 C 1,8 km/h (1 Bft)
22.12.2011 17:55 3,8 C 9,2 C 3,7 C 3,8 C 3,8 C 0,0 C 88 % 94 % 0 % 1022,3 hPa 0,0 l/m 0,8 km/h (0 Bft) NW 315 0 min 0,0 UV-I 2,0 C 3,8 C 0,0 km/h (0 Bft)
22.12.2011 18:00 3,7 C 9,2 C 3,7 C 3,8 C 3,8 C 0,1 C 88 % 94 % 0 % 1022,7 hPa 0,0 l/m 1,4 km/h (1 Bft) S 180 0 min 0,0 UV-I 1,9 C 3,8 C 7,9 km/h (2 Bft)
22.12.2011 18:04 3,7 C 9,3 C 3,7 C 3,7 C 3,7 C 0,0 C 88 % 93 % 0 % 1022,7 hPa 0,0 l/m 2,7 km/h (1 Bft) S 180 0 min 0,0 UV-I 1,9 C 3,7 C 5,5 km/h (1 Bft)
22.12.2011 18:09 3,7 C 9,3 C 3,6 C 3,7 C 3,6 C 0,0 C 88 % 93 % 0 % 1022,7 hPa 0,0 l/m 2,9 km/h (1 Bft) O-NO 67 0 min 0,0 UV-I 1,9 C 3,6 C 0,0 km/h (0 Bft)
22.12.2011 18:14 3,6 C 9,3 C 3,6 C 3,6 C 3,5 C 0,0 C 88 % 93 % 0 % 1022,7 hPa 0,0 l/m 2,3 km/h (1 Bft) S-SO 157 0 min 0,0 UV-I 1,8 C 3,5 C 3,7 km/h (1 Bft)
22.12.2011 18:21 3,7 C 9,3 C 3,7 C 3,6 C 3,5 C 0,0 C 88 % 94 % 0 % 1022,8 hPa 0,0 l/m 1,4 km/h (1 Bft) S 180 0 min 0,0 UV-I 1,9 C 3,5 C 3,2 km/h (1 Bft)
22.12.2011 18:25 3,6 C 9,3 C 3,7 C 3,6 C 3,5 C 0,0 C 88 % 94 % 0 % 1022,8 hPa 0,0 l/m 2,1 km/h (1 Bft) S 180 0 min 0,0 UV-I 1,8 C 3,5 C 3,4 km/h (1 Bft)
22.12.2011 18:30 3,7 C 9,3 C 3,7 C 3,6 C 3,5 C 0,0 C 88 % 94 % 0 % 1022,8 hPa 0,0 l/m 2,4 km/h (1 Bft) S 180 0 min 0,0 UV-I 1,9 C 3,5 C 3,2 km/h (1 Bft)
22.12.2011 18:35 3,6 C 9,3 C 3,7 C 3,6 C 3,5 C 0,0 C 89 % 94 % 0 % 1022,8 hPa 0,0 l/m 2,3 km/h (1 Bft) SO 135 0 min 0,0 UV-I 2,0 C 3,5 C 2,3 km/h (1 Bft)
22.12.2011 18:40 3,6 C 9,3 C 3,6 C 3,6 C 3,5 C 0,0 C 89 % 94 % 0 % 1022,6 hPa 0,0 l/m 1,4 km/h (1 Bft) S 180 0 min 0,0 UV-I 2,0 C 3,5 C 2,4 km/h (1 Bft)
22.12.2011 18:45 3,6 C 9,4 C 3,6 C 3,5 C 3,4 C 0,0 C 89 % 94 % 0 % 1022,6 hPa 0,0 l/m 0,5 km/h (0 Bft) SW 225 0 min 0,0 UV-I 2,0 C 3,4 C 2,6 km/h (1 Bft)
22.12.2011 18:50 3,6 C 9,4 C 3,5 C 3,5 C 3,4 C 0,0 C 89 % 94 % 0 % 1022,6 hPa 0,0 l/m 0,6 km/h (0 Bft) O-SO 112 0 min 0,0 UV-I 2,0 C 3,4 C 1,9 km/h (1 Bft)
22.12.2011 18:55 3,5 C 9,4 C 3,6 C 3,5 C 3,4 C 0,0 C 89 % 94 % 0 % 1022,6 hPa 0,0 l/m 1,4 km/h (1 Bft) S-SW 202 0 min 0,0 UV-I 1,9 C 3,4 C 4,2 km/h (1 Bft)
22.12.2011 19:00 3,5 C 9,4 C 3,5 C 3,4 C 3,3 C 0,0 C 89 % 94 % 0 % 1022,9 hPa 0,0 l/m 1,8 km/h (1 Bft) S 180 0 min 0,0 UV-I 1,9 C 3,3 C 2,6 km/h (1 Bft)
22.12.2011 19:04 3,5 C 9,4 C 3,5 C 3,4 C 3,3 C 0,0 C 89 % 94 % 0 % 1022,9 hPa 0,0 l/m 1,4 km/h (1 Bft) SW 225 0 min 0,0 UV-I 1,9 C 3,3 C 4,2 km/h (1 Bft)
22.12.2011 19:09 3,4 C 9,4 C 3,5 C 3,4 C 3,3 C 0,0 C 90 % 94 % 0 % 1022,9 hPa 0,0 l/m 1,6 km/h (1 Bft) S 180 0 min 0,0 UV-I 1,9 C 3,3 C 1,9 km/h (1 Bft)
22.12.2011 19:14 3,5 C 9,4 C 3,5 C 3,4 C 3,3 C 0,0 C 90 % 94 % 0 % 1022,9 hPa 0,0 l/m 2,4 km/h (1 Bft) W-NW 292 0 min 0,0 UV-I 2,0 C 3,3 C 2,7 km/h (1 Bft)
22.12.2011 19:21 3,5 C 9,4 C 3,5 C 3,4 C 3,2 C 0,0 C 90 % 94 % 0 % 1023,1 hPa 0,0 l/m 2,9 km/h (1 Bft) S-SO 157 0 min 0,0 UV-I 2,0 C 3,2 C 5,0 km/h (1 Bft)
22.12.2011 19:25 3,5 C 9,4 C 3,4 C 3,5 C 3,4 C 0,0 C 90 % 94 % 0 % 1023,1 hPa 0,0 l/m 2,7 km/h (1 Bft) S 180 0 min 0,0 UV-I 2,0 C 3,4 C 4,8 km/h (1 Bft)
22.12.2011 19:30 3,4 C 9,4 C 3,4 C 3,4 C 3,3 C 0,0 C 90 % 94 % 0 % 1023,1 hPa 0,0 l/m 2,9 km/h (1 Bft) SO 135 0 min 0,0 UV-I 1,9 C 3,3 C 4,0 km/h (1 Bft)
22.12.2011 19:35 3,4 C 9,4 C 3,4 C 3,4 C 3,4 C 0,0 C 90 % 94 % 0 % 1023,1 hPa 0,0 l/m 2,4 km/h (1 Bft) S 180 0 min 0,0 UV-I 1,9 C 3,4 C 2,6 km/h (1 Bft)
22.12.2011 19:40 3,5 C 9,4 C 3,4 C 3,5 C 3,4 C 0,0 C 90 % 94 % 0 % 1023,1 hPa 0,0 l/m 1,4 km/h (1 Bft) S-SO 157 0 min 0,0 UV-I 2,0 C 3,4 C 0,0 km/h (0 Bft)
22.12.2011 19:45 3,5 C 9,4 C 3,4 C 3,5 C 3,4 C 0,0 C 90 % 94 % 0 % 1023,1 hPa 0,0 l/m 1,3 km/h (1 Bft) S-SO 157 0 min 0,0 UV-I 2,0 C 3,4 C 2,6 km/h (1 Bft)
22.12.2011 19:50 3,5 C 9,4 C 3,5 C 3,5 C 3,4 C 0,0 C 90 % 94 % 0 % 1023,1 hPa 0,0 l/m 1,1 km/h (1 Bft) W-SW 247 0 min 0,0 UV-I 2,0 C 3,4 C 0,0 km/h (0 Bft)
22.12.2011 19:55 3,5 C 9,4 C 3,4 C 3,5 C 3,4 C 0,0 C 91 % 94 % 0 % 1023,1 hPa 0,0 l/m 0,8 km/h (0 Bft) N-NW 337 0 min 0,0 UV-I 2,2 C 3,4 C 0,0 km/h (0 Bft)
22.12.2011 20:00 3,5 C 9,4 C 3,4 C 3,5 C 3,5 C 0,0 C 91 % 94 % 0 % 1023,4 hPa 0,0 l/m 1,3 km/h (1 Bft) SO 135 0 min 0,0 UV-I 2,2 C 3,5 C 4,5 km/h (1 Bft)
22.12.2011 20:04 3,5 C 9,4 C 3,5 C 3,5 C 3,5 C 0,0 C 91 % 94 % 0 % 1023,4 hPa 0,0 l/m 2,1 km/h (1 Bft) S 180 0 min 0,0 UV-I 2,2 C 3,5 C 4,8 km/h (1 Bft)
22.12.2011 20:09 3,5 C 9,4 C 3,5 C 3,5 C 3,5 C 0,0 C 91 % 94 % 0 % 1023,4 hPa 0,0 l/m 2,6 km/h (1 Bft) S 180 0 min 0,0 UV-I 2,2 C 3,5 C 3,9 km/h (1 Bft)
22.12.2011 20:14 3,5 C 9,4 C 3,5 C 3,5 C 3,5 C 0,0 C 91 % 94 % 0 % 1023,4 hPa 0,0 l/m 2,3 km/h (1 Bft) S 180 0 min 0,0 UV-I 2,2 C 3,5 C 0,0 km/h (0 Bft)
22.12.2011 20:21 3,5 C 9,4 C 3,5 C 3,6 C 3,6 C 0,1 C 91 % 94 % 0 % 1023,4 hPa 0,0 l/m 2,7 km/h (1 Bft) S-SO 157 0 min 0,0 UV-I 2,2 C 3,6 C 6,4 km/h (2 Bft)
22.12.2011 20:25 3,5 C 9,4 C 3,6 C 3,6 C 3,6 C 0,1 C 91 % 94 % 0 % 1023,4 hPa 0,0 l/m 2,7 km/h (1 Bft) SO 135 0 min 0,0 UV-I 2,2 C 3,6 C 3,2 km/h (1 Bft)
22.12.2011 20:30 3,5 C 9,4 C 3,6 C 3,6 C 3,6 C 0,1 C 91 % 94 % 0 % 1023,4 hPa 0,0 l/m 2,6 km/h (1 Bft) S-SO 157 0 min 0,0 UV-I 2,2 C 3,6 C 5,3 km/h (1 Bft)
22.12.2011 20:35 3,4 C 9,4 C 3,6 C 3,6 C 3,6 C 0,2 C 91 % 94 % 0 % 1023,4 hPa 0,0 l/m 1,4 km/h (1 Bft) SO 135 0 min 0,0 UV-I 2,1 C 3,6 C 0,0 km/h (0 Bft)
22.12.2011 20:40 3,4 C 9,4 C 3,6 C 3,6 C 3,6 C 0,2 C 91 % 94 % 0 % 1022,8 hPa 0,0 l/m 1,4 km/h (1 Bft) W-SW 247 0 min 0,0 UV-I 2,1 C 3,6 C 0,0 km/h (0 Bft)
22.12.2011 20:45 3,5 C 9,4 C 3,6 C 3,7 C 3,7 C 0,2 C 91 % 95 % 0 % 1022,8 hPa 0,0 l/m 0,8 km/h (0 Bft) W-SW 247 0 min 0,0 UV-I 2,2 C 3,7 C 0,0 km/h (0 Bft)
22.12.2011 20:50 3,5 C 9,4 C 3,6 C 3,7 C 3,7 C 0,2 C 91 % 95 % 0 % 1022,8 hPa 0,0 l/m 0,5 km/h (0 Bft) NO 45 0 min 0,0 UV-I 2,2 C 3,7 C 2,9 km/h (1 Bft)
22.12.2011 20:55 3,5 C 9,4 C 3,6 C 3,7 C 3,7 C 0,2 C 91 % 95 % 0 % 1022,8 hPa 0,0 l/m 0,6 km/h (0 Bft) W 270 0 min 0,0 UV-I 2,2 C 3,7 C 0,0 km/h (0 Bft)
22.12.2011 21:00 3,5 C 9,4 C 3,6 C 3,7 C 3,7 C 0,2 C 92 % 95 % 0 % 1023,6 hPa 0,0 l/m 1,0 km/h (0 Bft) S-SW 202 0 min 0,0 UV-I 2,3 C 3,7 C 0,0 km/h (0 Bft)
22.12.2011 21:04 3,6 C 9,4 C 3,6 C 3,8 C 3,8 C 0,2 C 92 % 95 % 0 % 1023,6 hPa 0,0 l/m 0,5 km/h (0 Bft) S 180 0 min 0,0 UV-I 2,4 C 3,8 C 0,0 km/h (0 Bft)
22.12.2011 21:09 3,6 C 9,4 C 3,6 C 3,8 C 3,8 C 0,2 C 92 % 95 % 0 % 1023,6 hPa 0,0 l/m 0,6 km/h (0 Bft) S 180 0 min 0,0 UV-I 2,4 C 3,8 C 3,9 km/h (1 Bft)
22.12.2011 21:14 3,6 C 9,4 C 3,7 C 3,8 C 3,8 C 0,2 C 92 % 95 % 0 % 1023,6 hPa 0,0 l/m 1,8 km/h (1 Bft) O-SO 112 0 min 0,0 UV-I 2,4 C 3,8 C 2,1 km/h (1 Bft)
22.12.2011 21:21 3,6 C 9,4 C 3,7 C 3,8 C 3,8 C 0,2 C 92 % 95 % 0 % 1023,6 hPa 0,0 l/m 2,4 km/h (1 Bft) SW 225 0 min 0,0 UV-I 2,4 C 3,8 C 4,2 km/h (1 Bft)
22.12.2011 21:25 3,6 C 9,4 C 3,7 C 3,8 C 3,8 C 0,2 C 92 % 95 % 0 % 1023,6 hPa 0,0 l/m 1,9 km/h (1 Bft) N 360 0 min 0,0 UV-I 2,4 C 3,8 C 2,3 km/h (1 Bft)
22.12.2011 21:30 3,6 C 9,4 C 3,7 C 3,8 C 3,8 C 0,2 C 92 % 95 % 0 % 1023,6 hPa 0,0 l/m 1,4 km/h (1 Bft) SW 225 0 min 0,0 UV-I 2,4 C 3,8 C 5,3 km/h (1 Bft)
22.12.2011 21:35 3,7 C 9,4 C 3,7 C 3,8 C 3,8 C 0,1 C 92 % 95 % 0 % 1023,6 hPa 0,0 l/m 1,0 km/h (0 Bft) S 180 0 min 0,0 UV-I 2,5 C 3,8 C 3,1 km/h (1 Bft)
22.12.2011 21:40 3,6 C 9,4 C 3,7 C 3,9 C 3,9 C 0,3 C 92 % 95 % 0 % 1023,1 hPa 0,0 l/m 0,8 km/h (0 Bft) S-SW 202 0 min 0,0 UV-I 2,4 C 3,9 C 0,0 km/h (0 Bft)
22.12.2011 21:45 3,7 C 9,4 C 3,9 C 3,9 C 3,9 C 0,2 C 92 % 95 % 0 % 1023,1 hPa 0,0 l/m 1,3 km/h (1 Bft) W 270 0 min 0,0 UV-I 2,5 C 3,9 C 2,4 km/h (1 Bft)
22.12.2011 21:50 3,7 C 9,4 C 3,9 C 3,9 C 3,9 C 0,2 C 92 % 95 % 0 % 1023,1 hPa 0,0 l/m 1,6 km/h (1 Bft) SO 135 0 min 0,0 UV-I 2,5 C 3,9 C 0,0 km/h (0 Bft)
22.12.2011 21:55 3,7 C 9,4 C 3,9 C 3,9 C 3,9 C 0,2 C 92 % 95 % 0 % 1023,1 hPa 0,0 l/m 2,4 km/h (1 Bft) N-NO 22 0 min 0,0 UV-I 2,5 C 3,9 C 1,9 km/h (1 Bft)
22.12.2011 22:00 3,8 C 9,4 C 3,8 C 4,0 C 4,0 C 0,2 C 92 % 95 % 0 % 1023,5 hPa 0,0 l/m 2,9 km/h (1 Bft) S 180 0 min 0,0 UV-I 2,6 C 4,0 C 2,4 km/h (1 Bft)
22.12.2011 22:04 3,8 C 9,4 C 3,8 C 4,0 C 4,0 C 0,2 C 92 % 95 % 0 % 1023,5 hPa 0,0 l/m 2,1 km/h (1 Bft) SW 225 0 min 0,0 UV-I 2,6 C 4,0 C 2,6 km/h (1 Bft)
22.12.2011 22:09 3,9 C 9,4 C 3,9 C 4,0 C 4,0 C 0,1 C 92 % 95 % 0 % 1023,5 hPa 0,0 l/m 1,3 km/h (1 Bft) SW 225 0 min 0,0 UV-I 2,7 C 4,0 C 2,4 km/h (1 Bft)
22.12.2011 22:14 3,8 C 9,4 C 3,9 C 4,0 C 4,0 C 0,2 C 92 % 95 % 0 % 1023,5 hPa 0,0 l/m 0,8 km/h (0 Bft) W-SW 247 0 min 0,0 UV-I 2,6 C 4,0 C 4,2 km/h (1 Bft)
22.12.2011 22:19 3,9 C 9,4 C 3,9 C 4,1 C 4,1 C 0,2 C 92 % 95 % 0 % 1023,5 hPa 0,0 l/m 1,1 km/h (1 Bft) S-SW 202 0 min 0,0 UV-I 2,7 C 4,1 C 3,4 km/h (1 Bft)
22.12.2011 22:21 3,9 C 9,4 C 3,9 C 4,1 C 4,1 C 0,2 C 92 % 95 % 0 % 1023,5 hPa 0,0 l/m 1,1 km/h (1 Bft) S-SW 202 0 min 0,0 UV-I 2,7 C 4,1 C 3,4 km/h (1 Bft)
22.12.2011 22:25 3,9 C 9,4 C 3,9 C 4,1 C 4,1 C 0,2 C 92 % 95 % 0 % 1023,5 hPa 0,0 l/m 1,6 km/h (1 Bft) W-SW 247 0 min 0,0 UV-I 2,7 C 4,1 C 0,0 km/h (0 Bft)
22.12.2011 22:30 3,9 C 9,4 C 3,9 C 4,1 C 4,1 C 0,2 C 92 % 95 % 0 % 1023,5 hPa 0,0 l/m 1,0 km/h (0 Bft) W 270 0 min 0,0 UV-I 2,7 C 4,1 C 0,0 km/h (0 Bft)
22.12.2011 22:35 3,8 C 9,4 C 3,9 C 4,1 C 4,1 C 0,3 C 92 % 95 % 0 % 1023,5 hPa 0,0 l/m 0,3 km/h (0 Bft) S-SO 157 0 min 0,0 UV-I 2,6 C 4,1 C 0,0 km/h (0 Bft)
22.12.2011 22:40 3,9 C 9,4 C 3,9 C 4,1 C 4,1 C 0,2 C 92 % 95 % 0 % 1023,5 hPa 0,0 l/m 0,6 km/h (0 Bft) S 180 0 min 0,0 UV-I 2,7 C 4,1 C 0,0 km/h (0 Bft)
22.12.2011 22:45 3,9 C 9,5 C 4,0 C 4,2 C 4,2 C 0,3 C 92 % 95 % 0 % 1023,5 hPa 0,0 l/m 0,6 km/h (0 Bft) SW 225 0 min 0,0 UV-I 2,7 C 4,2 C 1,8 km/h (1 Bft)
22.12.2011 22:50 3,9 C 9,5 C 4,0 C 4,2 C 4,2 C 0,3 C 92 % 95 % 0 % 1023,5 hPa 0,0 l/m 1,0 km/h (0 Bft) SO 135 0 min 0,0 UV-I 2,7 C 4,2 C 1,6 km/h (1 Bft)
22.12.2011 22:55 3,9 C 9,5 C 4,0 C 4,2 C 4,2 C 0,3 C 92 % 95 % 0 % 1023,5 hPa 0,0 l/m 0,6 km/h (0 Bft) S-SW 202 0 min 0,0 UV-I 2,7 C 4,2 C 2,1 km/h (1 Bft)
22.12.2011 23:00 4,0 C 9,5 C 4,1 C 4,2 C 4,2 C 0,2 C 92 % 95 % 0 % 1023,9 hPa 0,0 l/m 0,6 km/h (0 Bft) SW 225 0 min 0,0 UV-I 2,8 C 4,2 C 0,0 km/h (0 Bft)
22.12.2011 23:09 4,0 C 9,5 C 4,0 C 4,3 C 4,3 C 0,3 C 92 % 95 % 0 % 1023,9 hPa 0,0 l/m 0,8 km/h (0 Bft) W-SW 247 0 min 0,0 UV-I 2,8 C 4,3 C 2,3 km/h (1 Bft)
22.12.2011 23:14 4,0 C 9,5 C 4,1 C 4,4 C 4,4 C 0,4 C 92 % 95 % 0 % 1023,9 hPa 0,0 l/m 1,6 km/h (1 Bft) W-SW 247 0 min 0,0 UV-I 2,8 C 4,4 C 0,0 km/h (0 Bft)
22.12.2011 23:19 4,0 C 9,5 C 4,1 C 4,4 C 4,4 C 0,4 C 92 % 95 % 0 % 1023,2 hPa 0,0 l/m 1,9 km/h (1 Bft) SW 225 0 min 0,0 UV-I 2,8 C 4,4 C 2,1 km/h (1 Bft)
22.12.2011 23:23 4,0 C 9,5 C 4,1 C 4,4 C 4,4 C 0,4 C 92 % 95 % 0 % 1023,2 hPa 0,0 l/m 1,9 km/h (1 Bft) SW 225 0 min 0,0 UV-I 2,8 C 4,4 C 2,1 km/h (1 Bft)
22.12.2011 23:30 4,1 C 9,5 C 4,2 C 4,4 C 4,4 C 0,3 C 92 % 95 % 0 % 1023,2 hPa 0,0 l/m 1,0 km/h (0 Bft) O-SO 112 0 min 0,0 UV-I 2,9 C 4,4 C 0,0 km/h (0 Bft)
22.12.2011 23:35 4,2 C 9,5 C 4,3 C 4,5 C 4,5 C 0,3 C 92 % 95 % 0 % 1023,2 hPa 0,0 l/m 0,5 km/h (0 Bft) S-SW 202 0 min 0,0 UV-I 3,0 C 4,5 C 1,8 km/h (1 Bft)
22.12.2011 23:40 4,1 C 9,5 C 4,3 C 4,5 C 4,5 C 0,4 C 92 % 95 % 0 % 1023,2 hPa 0,0 l/m 0,3 km/h (0 Bft) SW 225 0 min 0,0 UV-I 2,9 C 4,5 C 0,0 km/h (0 Bft)
22.12.2011 23:45 4,3 C 9,5 C 4,3 C 4,5 C 4,5 C 0,2 C 92 % 95 % 0 % 1023,2 hPa 0,0 l/m 0,0 km/h (0 Bft) N-NO 22 0 min 0,0 UV-I 3,1 C 4,5 C 0,0 km/h (0 Bft)
22.12.2011 23:50 4,2 C 9,5 C 4,3 C 4,5 C 4,5 C 0,3 C 92 % 95 % 0 % 1023,2 hPa 0,0 l/m 0,0 km/h (0 Bft) O-SO 112 0 min 0,0 UV-I 3,0 C 4,5 C 0,0 km/h (0 Bft)
22.12.2011 23:55 4,3 C 9,5 C 4,3 C 4,5 C 4,5 C 0,2 C 92 % 95 % 0 % 1023,2 hPa 0,0 l/m 0,0 km/h (0 Bft) O 90 0 min 0,0 UV-I 3,1 C 4,5 C 0,0 km/h (0 Bft)
_ Min-Zeit 07:55 10:50 04:35 07:55 02:21 00:00 14:09 15:30 00:00 00:00 - 04:20 - - - 00:00 04:40 02:21 00:35
Minimum _ 1,6 C 8,6 C 1,7 C 1,5 C 1,2 C 0,0 C 85 % 93 % 0 % 1021,2 hPa - 0,0 km/h (0 Bft) - - - 0,0 UV-I 0,4 C 1,2 C 0,0 km/h (0 Bft)
_ Max-Zeit 13:21 22:45 13:25 13:14 13:14 12:55 00:25 00:00 12:55 09:40 00:00 11:25 - - 00:00 00:00 23:45 13:14 10:50
Maximum _ 4,9 C 9,5 C 4,9 C 6,2 C 6,2 C 1,4 C 92 % 95 % 37 % 1024,1 hPa 0,0 l/m 5,5 km/h
W-SW (1 Bft)
- - 0 min 0,0 UV-I 3,1 C 6,2 C 16,1 km/h
SO (3 Bft)
Durchschnitt _ 3,2 C 9,0 C 3,2 C 3,4 C 3,2 C 0,2 C 90 % 95 % 4 % 1022,7 hPa #0,0 l/m 1,9 km/h (1 Bft) W-SW - #0 min. 0,0 UV-I 1,7 C 3,2 C 2,8 km/h (1 Bft)
2011 www.wetterstation-wechselburg.de